[[{"header":{"parameterUnit":"m.s-1","parameterCategory":2,"la1":30.2991,"la2":30.254,"lo1":-89.0895,"lo2":-89.0444,"dy":0.0017,"dx":0.0017,"nx":28,"ny":28,"refTime":"2023-08-30T03:00:00:Z","depth":"0","parameterNumber":2,"parameterNumberName":"U-component_of_CURRENTS"},"data":[0,0,0,0,0,0,0,0,0,0,0,0,0,0,0,0,0,0,0,0,0,0,0,0,0,0,0,0,0,0,0,0,0,0,0,0,0,0,0,0,0,0,0,0,0,0,0,0,0,0,0,0,0,0,0,0,0,0,-0.2629,-0.263,0,-0.2659,-0.2659,-0.2659,-0.2623,-0.2622,-0.2621,-0.262,-0.2601,-0.2602,-0.2602,0,0,0,0,0,0,0,0,0,0,0,0,0,-0.2556,-0.2558,-0.2629,-0.263,-0.2631,-0.2659,-0.2659,-0.2659,-0.2624,-0.2622,-0.2621,-0.2619,-0.2601,-0.2601,-0.2602,0,0,0,0,0,0,0,0,0,0,0,0,0,-0.2585,-0.2558,-0.2629,-0.2617,-0.2617,-0.2659,-0.2659,-0.2659,-0.2624,-0.2622,-0.262,-0.2619,-0.2601,-0.2601,-0.2602,-0.2642,0,0,-0.2605,-0.2605,0,0,0,0,0,0,0,0,-0.2584,-0.2588,-0.2619,-0.2618,-0.2618,-0.2637,-0.2627,-0.2652,-0.2624,-0.2619,-0.262,-0.2618,-0.2611,-0.2611,-0.2618,-0.2641,-0.264,-0.2605,-0.2605,-0.2606,-0.2606,0,0,0,0,0,0,0,-0.2582,-0.2586,-0.2639,-0.2619,-0.2619,-0.2616,-0.2618,-0.2631,-0.2622,-0.2619,-0.2617,-0.2624,-0.261,-0.2618,-0.2618,-0.264,-0.2605,-0.2606,-0.2606,-0.2607,-0.2678,-0.268,0,0,0,0,0,0,-0.2584,-0.2585,-0.2638,-0.264,-0.2598,-0.2619,-0.2621,-0.2631,-0.2623,-0.2621,-0.2626,-0.2623,-0.2617,-0.2617,-0.2617,-0.2651,-0.2606,-0.2607,-0.2607,-0.2677,-0.2679,-0.268,0,0,0,0,0,0,-0.2582,-0.2588,-0.2637,-0.2614,-0.262,-0.2622,-0.2634,-0.2633,-0.2633,-0.2629,-0.2625,-0.2627,-0.2616,-0.2616,-0.2628,-0.265,-0.2607,-0.2608,-0.2675,-0.2678,-0.268,-0.2726,0,0,0,0,0,0,-0.258,-0.2588,-0.2594,-0.2615,-0.2622,-0.2664,-0.2636,-0.2635,-0.2642,-0.2637,-0.2629,-0.2625,-0.2614,-0.2627,-0.2629,-0.265,-0.2608,-0.2674,-0.2676,-0.2679,-0.2723,-0.273,-0.2736,0,0,0,0,0,-0.2577,-0.2596,-0.2594,-0.2601,-0.2632,-0.2666,-0.2669,-0.2662,-0.2643,-0.2654,-0.2644,-0.2625,-0.2645,-0.2629,-0.2631,-0.2653,-0.2672,-0.2676,-0.2679,-0.272,-0.2728,-0.2735,0,0,0,0,0,0,-0.2565,-0.2595,-0.2593,-0.2619,-0.2641,-0.266,-0.2668,-0.2667,-0.267,-0.2659,-0.2645,-0.2643,-0.2664,-0.2656,-0.2639,-0.2682,-0.2656,-0.2659,-0.2687,-0.2694,-0.27,-0.2696,-0.2609,0,0,0,0,0,-0.2569,-0.2585,-0.2616,-0.2633,-0.2646,-0.2657,-0.2668,-0.2669,-0.2677,-0.2675,-0.2671,-0.2669,-0.2683,-0.2684,-0.2694,-0.2719,-0.2696,-0.2734,-0.2741,-0.2746,-0.2745,-0.2738,-0.2743,-0.2691,-0.2691,-0.2691,0,0,-0.2567,-0.2585,-0.2593,-0.2631,-0.2642,-0.2677,-0.2658,-0.268,-0.2704,-0.2675,-0.2695,-0.2694,-0.2696,-0.2723,-0.2731,-0.2714,-0.2749,-0.275,-0.2754,-0.275,-0.2742,-0.2747,-0.2751,-0.2693,-0.2692,-0.2692,0,0,-0.2578,-0.259,-0.2611,-0.2638,-0.2667,-0.2685,-0.2693,-0.2718,-0.272,-0.275,-0.2735,-0.2743,-0.2763,-0.2767,-0.2773,-0.2822,-0.2786,-0.2828,-0.2851,-0.2846,-0.2849,-0.2852,-0.2824,-0.2824,-0.2826,-0.2826,-0.2826,0,-0.2572,-0.2605,-0.2623,-0.2657,-0.2678,-0.2691,-0.2725,-0.2746,-0.2769,-0.2775,-0.2759,-0.2788,-0.2786,-0.2818,-0.2833,-0.2835,-0.2816,-0.2821,-0.2852,-0.2855,-0.2857,-0.2827,-0.2826,-0.2829,-0.2829,-0.2828,-0.2828,0,-0.2604,-0.2634,-0.2649,-0.2696,-0.2727,-0.2755,-0.2793,-0.2816,-0.2819,-0.2831,-0.2856,-0.2855,-0.2864,-0.2875,-0.2868,-0.2893,-0.2868,-0.2863,-0.2828,-0.2865,-0.2831,-0.2829,-0.2833,-0.2832,-0.2831,-0.283,0,0,-0.2577,-0.2656,-0.266,-0.2685,-0.2747,-0.2772,-0.2825,-0.2869,-0.2889,-0.2906,-0.2925,-0.295,-0.2932,-0.2937,-0.293,-0.2927,-0.2925,-0.2902,-0.29,-0.2865,-0.2893,-0.2806,-0.2795,-0.2923,-0.2923,-0.2923,-0.286,0,-0.2589,-0.2653,-0.2696,-0.2752,-0.2785,-0.2827,-0.2873,-0.2913,-0.2936,-0.296,-0.2961,-0.2975,-0.2963,-0.2959,-0.2959,-0.2939,-0.2925,-0.2942,-0.287,-0.2868,-0.2779,-0.2792,-0.2678,-0.2605,-0.2858,-0.2858,-0.2857,0,-0.2595,-0.2642,-0.2699,-0.2772,-0.279,-0.2827,-0.2887,-0.2932,-0.2981,-0.2992,-0.3009,-0.3009,-0.3016,-0.2992,-0.2967,-0.2977,-0.2937,-0.2914,-0.2911,-0.2811,-0.2778,-0.2613,-0.2593,-0.2562,-0.2855,-0.2855,-0.2855,0,-0.2545,-0.2633,-0.2673,-0.2701,-0.2795,-0.282,-0.2865,-0.2929,-0.2963,-0.3003,-0.3017,-0.303,-0.3025,-0.2996,-0.2951,-0.2958,-0.2908,-0.2908,-0.279,-0.2782,-0.266,-0.2641,-0.2592,-0.2879,-0.2879,-0.2879,-0.2879,0,-0.2533,-0.256,-0.2649,-0.2672,-0.271,-0.2787,-0.2829,-0.2875,-0.2945,-0.2974,-0.3015,-0.3026,-0.3026,-0.3004,-0.2957,-0.2859,-0.2906,-0.2787,-0.2761,-0.2672,-0.2656,-0.2603,-0.2624,-0.2877,-0.2877,-0.2878,-0.2878,0,-0.2458,-0.2527,-0.2566,-0.2659,-0.2683,-0.2702,-0.2797,-0.2832,-0.2905,-0.2946,-0.2956,-0.3017,-0.2979,-0.2959,-0.2907,-0.285,-0.2715,-0.2727,-0.261,-0.2571,-0.2422,-0.2451,-0.2367,-0.23,-0.2582,-0.2579,-0.2577,0,-0.2422,-0.2434,-0.2519,-0.2541,-0.2578,-0.2631,-0.2669,-0.2777,-0.2825,-0.2926,-0.2935,-0.2944,-0.2903,-0.2802,-0.2721,-0.2609,-0.2604,-0.244,-0.2431,-0.2389,-0.2403,-0.2426,-0.2378,-0.2287,-0.2282,-0.2279,-0.2276,0,-0.2331,-0.2355,-0.2392,-0.2434,-0.2473,-0.252,-0.259,-0.2619,-0.2745,-0.2776,-0.2791,-0.2768,-0.2722,-0.2566,-0.2461,-0.2386,-0.237,-0.2361,-0.2353,-0.2192,-0.2179,-0.2109,-0.2352,-0.2244,-0.2247,-0.225,-0.2252,-0.2253,-0.2231,-0.2229,-0.2271,-0.2293,-0.2342,-0.2359,-0.2338,-0.2431,-0.2449,-0.2461,-0.2566,-0.2493,-0.2443,-0.2273,-0.2199,-0.2051,-0.2133,-0.1979,-0.2022,-0.2053,-0.1971,-0.2132,-0.1979,-0.198,-0.1982,-0.1983,-0.1984,0,-0.2092,-0.2106,-0.2128,-0.2143,-0.2124,-0.2201,-0.2242,-0.2194,-0.2143,-0.2217,-0.2189,-0.2144,-0.1999,-0.197,-0.1848,-0.1746,-0.1715,-0.1705,-0.1723,-0.1694,-0.1848,-0.1817,-0.1578,-0.1578,-0.1578,-0.1578,-0.1578,-0.1578,-0.2019,-0.1983,-0.1994,-0.19,-0.1908,-0.1818,-0.1792,-0.1752,-0.1768,-0.1701,-0.1715,-0.1789,-0.1788,-0.1854,-0.1703,-0.1606,-0.157,-0.1511,-0.1552,-0.1686,-0.1716,-0.1744,-0.1719,-0.1463,-0.1463,-0.1324,-0.1323,-0.1322]},{"header":{"parameterUnit":"m.s-1","parameterCategory":2,"la1":30.2991,"la2":30.254,"lo1":-89.0895,"lo2":-89.0444,"dy":0.0017,"dx":0.0017,"nx":28,"ny":28,"refTime":"2023-08-30T03:00:00:Z","depth":"0","parameterNumber":3,"parameterNumberName":"V-component_of_CURRENTS"},"data":[0,0,0,0,0,0,0,0,0,0,0,0,0,0,0,0,0,0,0,0,0,0,0,0,0,0,0,0,0,0,0,0,0,0,0,0,0,0,0,0,0,0,0,0,0,0,0,0,0,0,0,0,0,0,0,0,0,0,-0.0404,-0.0404,0,-0.0322,-0.0321,-0.032,-0.0259,-0.0258,-0.0258,-0.0257,-0.0127,-0.0124,-0.0121,0,0,0,0,0,0,0,0,0,0,0,0,0,-0.046,-0.0459,-0.0404,-0.0404,-0.0403,-0.0322,-0.0321,-0.032,-0.0259,-0.0258,-0.0258,-0.0257,-0.0128,-0.0124,-0.0121,0,0,0,0,0,0,0,0,0,0,0,0,0,-0.0411,-0.0459,-0.0405,-0.0364,-0.0359,-0.0322,-0.0321,-0.0319,-0.0259,-0.0258,-0.0258,-0.0257,-0.0129,-0.0125,-0.012,-0.0103,0,0,-0.0106,-0.0104,0,0,0,0,0,0,0,0,-0.0414,-0.0409,-0.0371,-0.0366,-0.0362,-0.0301,-0.0292,-0.0245,-0.0259,-0.0295,-0.0257,-0.0257,-0.0182,-0.0173,-0.0158,-0.0097,-0.0092,-0.0105,-0.0103,-0.0101,-0.0099,0,0,0,0,0,0,0,-0.0417,-0.0412,-0.037,-0.037,-0.0364,-0.0333,-0.0325,-0.0283,-0.0241,-0.0292,-0.0288,-0.0281,-0.0179,-0.0162,-0.0154,-0.009,-0.0106,-0.0101,-0.0099,-0.0097,0.0008,0.0008,0,0,0,0,0,0,-0.0434,-0.0415,-0.0373,-0.0368,-0.0388,-0.0332,-0.0324,-0.032,-0.0242,-0.0231,-0.0282,-0.0279,-0.017,-0.0159,-0.0149,-0.0122,-0.0101,-0.0096,-0.0094,0.0008,0.0008,0.0008,0,0,0,0,0,0,-0.0435,-0.0431,-0.0376,-0.0391,-0.0382,-0.0333,-0.0328,-0.0319,-0.0302,-0.0236,-0.0223,-0.0275,-0.017,-0.0156,-0.0113,-0.0116,-0.0094,-0.009,0.0008,0.0008,0.0008,-0.0069,0,0,0,0,0,0,-0.0437,-0.0432,-0.0436,-0.0392,-0.0382,-0.0362,-0.0329,-0.0318,-0.0299,-0.0294,-0.0225,-0.0212,-0.0168,-0.012,-0.0108,-0.011,-0.0086,0.0008,0.0008,0.0008,-0.0066,-0.0072,-0.0076,0,0,0,0,0,-0.044,-0.0451,-0.0437,-0.0432,-0.0389,-0.0363,-0.0354,-0.0316,-0.03,-0.0297,-0.0248,-0.0214,-0.0111,-0.0116,-0.0102,-0.0103,0.0008,0.0008,0.0008,-0.0064,-0.0071,-0.0076,0,0,0,0,0,0,-0.0476,-0.0444,-0.0428,-0.0429,-0.0401,-0.0353,-0.0349,-0.0323,-0.0283,-0.0277,-0.0214,-0.0198,-0.0162,-0.0122,-0.0129,-0.0072,-0.0046,-0.0043,-0.0106,-0.0111,-0.0116,-0.0128,-0.0082,0,0,0,0,0,-0.0488,-0.0489,-0.045,-0.0451,-0.0441,-0.0397,-0.0382,-0.0357,-0.0316,-0.0298,-0.025,-0.0197,-0.0152,-0.0124,-0.008,-0.0049,-0.0003,-0.0039,-0.0044,-0.0048,-0.0048,0.0017,0.0018,0.0008,0.0008,0.0008,0,0,-0.0503,-0.0486,-0.0486,-0.0459,-0.0435,-0.0429,-0.0386,-0.0371,-0.036,-0.029,-0.0263,-0.0214,-0.0148,-0.0114,-0.0094,-0.0079,-0.0023,-0.0048,-0.0053,-0.005,0.0017,0.0018,0.0019,0.0008,0.0008,0.0008,0,0,-0.054,-0.0519,-0.0534,-0.0517,-0.0489,-0.0457,-0.0457,-0.0412,-0.0387,-0.0356,-0.0303,-0.0256,-0.0191,-0.0142,-0.0109,-0.0112,-0.0054,-0.01,-0.0129,-0.0067,-0.0066,-0.0064,-0.0016,-0.0009,-0.0099,-0.0099,-0.0099,0,-0.0561,-0.0571,-0.0533,-0.0544,-0.0538,-0.0476,-0.0489,-0.0452,-0.0399,-0.0377,-0.0358,-0.0255,-0.0203,-0.0149,-0.015,-0.0123,-0.0083,-0.0116,-0.0074,-0.0071,-0.0068,-0.0019,-0.0011,-0.0103,-0.0103,-0.0102,-0.0102,0,-0.0607,-0.0615,-0.0622,-0.0613,-0.06,-0.06,-0.055,-0.0524,-0.0485,-0.0443,-0.0387,-0.0312,-0.0249,-0.0226,-0.0187,-0.0141,-0.0119,-0.0093,-0.0064,-0.0072,-0.002,-0.001,-0.0108,-0.0107,-0.0106,-0.0105,0,0,-0.0654,-0.0657,-0.0659,-0.0671,-0.0639,-0.0633,-0.0611,-0.0569,-0.0549,-0.0486,-0.0454,-0.0372,-0.0325,-0.0284,-0.0225,-0.0168,-0.0116,-0.0128,-0.0123,-0.0089,0.0014,0.0062,0.0078,-0.0083,-0.0082,-0.008,0.0037,0,-0.0702,-0.0746,-0.0726,-0.0755,-0.0773,-0.0715,-0.0705,-0.0657,-0.0594,-0.0543,-0.045,-0.0398,-0.0347,-0.0317,-0.0253,-0.0146,-0.0091,-0.0151,0.0024,0.0029,0.0067,0.0091,0.0122,0.0233,0.0047,0.0049,0.005,0,-0.0756,-0.0777,-0.0826,-0.0835,-0.0837,-0.0838,-0.0799,-0.0777,-0.0681,-0.0635,-0.0552,-0.0473,-0.0375,-0.0335,-0.016,-0.02,-0.0105,-0.0023,-0.0016,0.0065,0.0097,0.0216,0.0259,0.0404,0.0066,0.0065,0.0064,0,-0.082,-0.0846,-0.089,-0.0894,-0.0891,-0.0893,-0.0876,-0.0806,-0.0784,-0.0679,-0.0646,-0.0517,-0.0444,-0.031,-0.0136,-0.0147,0.006,0.0069,0.0201,0.0204,0.0286,0.0295,0.0486,0.0187,0.0186,0.0186,0.0186,0,-0.0884,-0.0915,-0.0923,-0.0949,-0.0992,-0.0961,-0.097,-0.0927,-0.0859,-0.0828,-0.0698,-0.0631,-0.0432,-0.0285,-0.0144,0.0069,0.0059,0.0206,0.0246,0.0259,0.0263,0.0437,0.0489,0.019,0.019,0.0189,0.0188,0,-0.0949,-0.0956,-0.1009,-0.1023,-0.1029,-0.1057,-0.1046,-0.1042,-0.0967,-0.0915,-0.0886,-0.0703,-0.05,-0.0299,-0.0058,0.0067,0.0355,0.0328,0.0323,0.0362,0.0607,0.0651,0.0878,0.097,0.0488,0.049,0.0492,0,-0.0988,-0.1022,-0.1071,-0.111,-0.1119,-0.1145,-0.1164,-0.1107,-0.109,-0.095,-0.093,-0.0718,-0.055,-0.0178,0.0089,0.0355,0.046,0.0527,0.0516,0.0641,0.0721,0.0744,0.0805,0.0589,0.0591,0.0593,0.0595,0,-0.1053,-0.107,-0.1115,-0.1197,-0.1235,-0.1271,-0.1279,-0.1282,-0.1194,-0.1116,-0.0962,-0.0809,-0.0431,-0.0077,0.0272,0.0424,0.0639,0.0574,0.072,0.0835,0.0859,0.0959,0.0476,0.0612,0.061,0.0609,0.0608,0.0607,-0.1093,-0.115,-0.1211,-0.1281,-0.133,-0.1372,-0.1384,-0.1351,-0.1298,-0.1143,-0.0996,-0.0716,-0.0221,0.0297,0.0482,0.0861,0.0808,0.0954,0.1002,0.1016,0.1102,0.0648,0.0819,0.0819,0.0818,0.0818,0.0817,0,-0.1143,-0.1205,-0.1287,-0.1367,-0.1419,-0.1425,-0.144,-0.1404,-0.1312,-0.1125,-0.093,-0.0367,0.0112,0.0552,0.1088,0.1278,0.1315,0.1358,0.1404,0.145,0.1075,0.1077,0.1292,0.1292,0.1291,0.1291,0.1291,0.1291,-0.1173,-0.1264,-0.1309,-0.141,-0.1458,-0.1486,-0.1482,-0.1395,-0.1253,-0.0906,-0.0571,-0.0304,0.0307,0.1168,0.164,0.1669,0.1831,0.1799,0.1895,0.1633,0.1598,0.1565,0.1581,0.1899,0.1899,0.2256,0.2259,0.2262]}],[{"header":{"parameterUnit":"m.s-1","parameterCategory":2,"la1":30.2991,"la2":30.254,"lo1":-89.0895,"lo2":-89.0444,"dy":0.0017,"dx":0.0017,"nx":28,"ny":28,"refTime":"2023-08-30T03:00:00:Z","depth":"2","parameterNumber":2,"parameterNumberName":"U-component_of_CURRENTS"},"data":[0,0,0,0,0,0,0,0,0,0,0,0,0,0,0,0,0,0,0,0,0,0,0,0,0,0,0,0,0,0,0,0,0,0,0,0,0,0,0,0,0,0,0,0,0,0,0,0,0,0,0,0,0,0,0,0,0,0,-0.2463,-0.2464,0,-0.2494,-0.2494,-0.2494,-0.2468,-0.2467,-0.2466,-0.2466,-0.2454,-0.2454,-0.2455,0,0,0,0,0,0,0,0,0,0,0,0,0,-0.2394,-0.2395,-0.2463,-0.2464,-0.2465,-0.2494,-0.2494,-0.2494,-0.2468,-0.2467,-0.2466,-0.2465,-0.2453,-0.2454,-0.2455,0,0,0,0,0,0,0,0,0,0,0,0,0,-0.2423,-0.2396,-0.2463,-0.2457,-0.2456,-0.2494,-0.2494,-0.2495,-0.2469,-0.2467,-0.2466,-0.2465,-0.2453,-0.2454,-0.2455,-0.2487,0,0,-0.2457,-0.2457,0,0,0,0,0,0,0,0,-0.2421,-0.2425,-0.2457,-0.2457,-0.2457,-0.2478,-0.2466,-0.2491,-0.2469,-0.2462,-0.2466,-0.2464,-0.246,-0.246,-0.2467,-0.2486,-0.2486,-0.2457,-0.2458,-0.2458,-0.2458,0,0,0,0,0,0,0,-0.2419,-0.2424,-0.2474,-0.2458,-0.2458,-0.2456,-0.2458,-0.247,-0.2466,-0.2462,-0.2461,-0.2468,-0.2459,-0.2466,-0.2466,-0.2486,-0.2457,-0.2458,-0.2458,-0.2459,-0.2529,-0.253,0,0,0,0,0,0,-0.2421,-0.2422,-0.2473,-0.2475,-0.2438,-0.2459,-0.2461,-0.2471,-0.2467,-0.2466,-0.2469,-0.2467,-0.2465,-0.2465,-0.2466,-0.2503,-0.2458,-0.2459,-0.2459,-0.2528,-0.2529,-0.2531,0,0,0,0,0,0,-0.2419,-0.2425,-0.2471,-0.245,-0.2456,-0.2461,-0.2473,-0.2472,-0.2477,-0.2473,-0.247,-0.2474,-0.2464,-0.2464,-0.2479,-0.2502,-0.2459,-0.246,-0.2526,-0.2528,-0.253,-0.2578,0,0,0,0,0,0,-0.2417,-0.2424,-0.2432,-0.245,-0.2457,-0.2498,-0.2474,-0.2474,-0.2484,-0.2481,-0.2476,-0.2474,-0.2463,-0.2478,-0.248,-0.2503,-0.246,-0.2524,-0.2527,-0.253,-0.2575,-0.2582,-0.2588,0,0,0,0,0,-0.2414,-0.2431,-0.2432,-0.2438,-0.2468,-0.2499,-0.2503,-0.25,-0.2486,-0.2497,-0.2491,-0.2474,-0.2496,-0.248,-0.2482,-0.2505,-0.2523,-0.2526,-0.2529,-0.2572,-0.2581,-0.2588,0,0,0,0,0,0,-0.2403,-0.2431,-0.2432,-0.2456,-0.2477,-0.2495,-0.2504,-0.2506,-0.2512,-0.2504,-0.2492,-0.2491,-0.2515,-0.2507,-0.2489,-0.2534,-0.2507,-0.2511,-0.2539,-0.2547,-0.2553,-0.2548,-0.2461,0,0,0,0,0,-0.2407,-0.2423,-0.2452,-0.2468,-0.2481,-0.2494,-0.2505,-0.2509,-0.2518,-0.2519,-0.2517,-0.2518,-0.2532,-0.2535,-0.2544,-0.2569,-0.2548,-0.2586,-0.2592,-0.2598,-0.2596,-0.2592,-0.2597,-0.2541,-0.2541,-0.2541,0,0,-0.2406,-0.2423,-0.2431,-0.2467,-0.2479,-0.2511,-0.2496,-0.2519,-0.2543,-0.2518,-0.2542,-0.2543,-0.2545,-0.2572,-0.2582,-0.2565,-0.2602,-0.2602,-0.2606,-0.2601,-0.2595,-0.2601,-0.2605,-0.2543,-0.2543,-0.2543,0,0,-0.2415,-0.2429,-0.2448,-0.2474,-0.2503,-0.252,-0.253,-0.2556,-0.2562,-0.2593,-0.2581,-0.2593,-0.2614,-0.2618,-0.2624,-0.2673,-0.2639,-0.268,-0.2704,-0.27,-0.2704,-0.2708,-0.2682,-0.2682,-0.2679,-0.2679,-0.2679,0,-0.2412,-0.2441,-0.2459,-0.249,-0.2511,-0.2528,-0.2559,-0.2581,-0.2607,-0.2616,-0.2604,-0.2637,-0.2636,-0.2668,-0.2684,-0.2686,-0.2669,-0.2673,-0.2707,-0.271,-0.2712,-0.2685,-0.2685,-0.2682,-0.2682,-0.2681,-0.2681,0,-0.2439,-0.2467,-0.2482,-0.2526,-0.2555,-0.2583,-0.2621,-0.2647,-0.2655,-0.267,-0.2699,-0.2701,-0.2712,-0.2724,-0.2719,-0.2746,-0.2723,-0.2717,-0.2683,-0.2721,-0.269,-0.2689,-0.2686,-0.2685,-0.2684,-0.2683,0,0,-0.2415,-0.2487,-0.2491,-0.2514,-0.2575,-0.2598,-0.2651,-0.2694,-0.2717,-0.274,-0.2761,-0.279,-0.2778,-0.2783,-0.2779,-0.2779,-0.2783,-0.2757,-0.2756,-0.2723,-0.2757,-0.2669,-0.2659,-0.2782,-0.2782,-0.2783,-0.2725,0,-0.2426,-0.2484,-0.2523,-0.2575,-0.2605,-0.2647,-0.2692,-0.2734,-0.2761,-0.2788,-0.2795,-0.2813,-0.2805,-0.2806,-0.2809,-0.2794,-0.2784,-0.2797,-0.2733,-0.273,-0.2641,-0.2656,-0.2464,-0.239,-0.2724,-0.2724,-0.2724,0,-0.243,-0.2472,-0.2525,-0.2591,-0.2608,-0.2646,-0.2706,-0.275,-0.2802,-0.2818,-0.2839,-0.2844,-0.2856,-0.2838,-0.2821,-0.2829,-0.2796,-0.2777,-0.2774,-0.2672,-0.264,-0.2409,-0.2376,-0.2722,-0.2722,-0.2722,-0.2722,0,-0.2384,-0.2464,-0.2501,-0.2527,-0.2614,-0.2641,-0.2685,-0.2749,-0.2782,-0.2829,-0.2845,-0.2864,-0.2865,-0.2843,-0.2808,-0.2814,-0.2773,-0.2773,-0.2659,-0.2652,-0.2464,-0.2439,-0.275,-0.275,-0.2751,-0.2751,-0.2751,0,-0.2371,-0.2396,-0.248,-0.2502,-0.2537,-0.2612,-0.2653,-0.27,-0.2769,-0.2797,-0.2844,-0.2855,-0.2868,-0.2851,-0.2812,-0.2723,-0.2771,-0.2657,-0.2633,-0.2475,-0.2453,-0.2725,-0.2723,-0.2749,-0.2749,-0.2749,-0.275,0,-0.2303,-0.2367,-0.2402,-0.2491,-0.2513,-0.2534,-0.2623,-0.2656,-0.2731,-0.2769,-0.2782,-0.2846,-0.2816,-0.2806,-0.2766,-0.2713,-0.2647,-0.2601,-0.2405,-0.2359,-0.2526,-0.2528,-0.2467,-0.2464,-0.2461,-0.2458,-0.2456,0,-0.2271,-0.2282,-0.2361,-0.2381,-0.2417,-0.2468,-0.2503,-0.2606,-0.2648,-0.2746,-0.2753,-0.277,-0.2729,-0.2644,-0.2567,-0.2466,-0.2551,-0.2236,-0.2216,-0.2515,-0.2498,-0.2504,-0.2509,-0.1983,-0.1977,-0.1972,-0.1968,0,-0.2188,-0.2212,-0.2245,-0.2283,-0.2319,-0.2358,-0.2423,-0.2446,-0.2563,-0.2591,-0.2602,-0.258,-0.2537,-0.2351,-0.2259,-0.2182,-0.224,-0.2135,-0.2487,-0.2093,-0.2056,-0.2041,-0.2062,-0.1926,-0.193,-0.1933,-0.1936,-0.1937,-0.21,-0.2098,-0.2134,-0.2153,-0.2197,-0.2205,-0.218,-0.226,-0.2269,-0.2271,-0.2369,-0.2266,-0.226,-0.2005,-0.1894,-0.1816,-0.1974,-0.1874,-0.189,-0.191,-0.1873,-0.1833,-0.1653,-0.1656,-0.1658,-0.166,-0.1662,0,-0.1975,-0.1986,-0.2002,-0.2011,-0.1989,-0.2061,-0.2087,-0.2032,-0.1972,-0.2014,-0.1981,-0.1765,-0.164,-0.1639,-0.1455,-0.1418,-0.1415,-0.135,-0.1347,-0.1389,-0.1427,-0.1367,-0.1012,-0.101,-0.1008,-0.1007,0,0,-0.1909,-0.1872,-0.1877,-0.1782,-0.1789,-0.1697,-0.1667,-0.1611,-0.16,-0.1492,-0.1443,-0.1547,-0.1586,-0.13,-0.1234,-0.1092,-0.1229,-0.1034,-0.1555,-0.1593,-0.1628,-0.1726,-0.168,0,0,0,0,0]},{"header":{"parameterUnit":"m.s-1","parameterCategory":2,"la1":30.2991,"la2":30.254,"lo1":-89.0895,"lo2":-89.0444,"dy":0.0017,"dx":0.0017,"nx":28,"ny":28,"refTime":"2023-08-30T03:00:00:Z","depth":"2","parameterNumber":3,"parameterNumberName":"V-component_of_CURRENTS"},"data":[0,0,0,0,0,0,0,0,0,0,0,0,0,0,0,0,0,0,0,0,0,0,0,0,0,0,0,0,0,0,0,0,0,0,0,0,0,0,0,0,0,0,0,0,0,0,0,0,0,0,0,0,0,0,0,0,0,0,-0.0253,-0.0252,0,-0.0177,-0.0176,-0.0175,-0.0119,-0.0119,-0.0119,-0.0118,0.0006,0.0009,0.0012,0,0,0,0,0,0,0,0,0,0,0,0,0,-0.03,-0.03,-0.0253,-0.0252,-0.0251,-0.0177,-0.0176,-0.0175,-0.0119,-0.0119,-0.0118,-0.0118,0.0005,0.0009,0.0012,0,0,0,0,0,0,0,0,0,0,0,0,0,-0.0256,-0.03,-0.0253,-0.0216,-0.0212,-0.0177,-0.0176,-0.0174,-0.0119,-0.0119,-0.0118,-0.0118,0.0004,0.0008,0.0013,0.0031,0,0,0.0026,0.0028,0,0,0,0,0,0,0,0,-0.0259,-0.0254,-0.0222,-0.0218,-0.0214,-0.0158,-0.0147,-0.0104,-0.0119,-0.0153,-0.0118,-0.0118,-0.0046,-0.0037,-0.0022,0.0037,0.0042,0.0027,0.003,0.0032,0.0033,0,0,0,0,0,0,0,-0.0262,-0.0257,-0.0221,-0.0221,-0.0216,-0.0186,-0.018,-0.0138,-0.0101,-0.015,-0.0146,-0.014,-0.0043,-0.0027,-0.0019,0.0044,0.0027,0.0031,0.0034,0.0035,0.0134,0.0134,0,0,0,0,0,0,-0.0278,-0.026,-0.0224,-0.0219,-0.0238,-0.0186,-0.0179,-0.0175,-0.0102,-0.0091,-0.0141,-0.0138,-0.0035,-0.0024,-0.0014,0.0009,0.0031,0.0036,0.0038,0.0134,0.0134,0.0134,0,0,0,0,0,0,-0.0279,-0.0275,-0.0227,-0.0239,-0.0231,-0.0186,-0.0183,-0.0174,-0.0159,-0.0096,-0.0084,-0.0135,-0.0034,-0.0021,0.0019,0.0015,0.0038,0.0042,0.0134,0.0134,0.0134,0.0058,0,0,0,0,0,0,-0.0281,-0.0276,-0.0281,-0.024,-0.0231,-0.0214,-0.0183,-0.0173,-0.0157,-0.0153,-0.0087,-0.0075,-0.0033,0.0012,0.0024,0.0021,0.0045,0.0134,0.0134,0.0134,0.0061,0.0055,0.0051,0,0,0,0,0,-0.0283,-0.0294,-0.0282,-0.0278,-0.0239,-0.0215,-0.0207,-0.0172,-0.0158,-0.0156,-0.011,-0.0077,0.0019,0.0016,0.0029,0.0028,0.0134,0.0134,0.0134,0.0063,0.0056,0.0051,0,0,0,0,0,0,-0.0317,-0.0289,-0.0274,-0.0276,-0.0251,-0.0206,-0.0204,-0.0179,-0.0142,-0.0138,-0.0077,-0.0062,-0.003,0.001,0.0004,0.0056,0.0082,0.0084,0.0023,0.0018,0.0013,0.0002,0.0049,0,0,0,0,0,-0.0329,-0.033,-0.0295,-0.0297,-0.0288,-0.0248,-0.0235,-0.0212,-0.0174,-0.0157,-0.0112,-0.0063,-0.002,0.0006,0.0048,0.0077,0.0121,0.0086,0.0081,0.0076,0.0077,0.014,0.014,0.0133,0.0133,0.0133,0,0,-0.0343,-0.0328,-0.0329,-0.0305,-0.0283,-0.0278,-0.0238,-0.0225,-0.0216,-0.0149,-0.0125,-0.008,-0.0017,0.0015,0.0033,0.0048,0.0099,0.0076,0.0072,0.0076,0.014,0.014,0.0141,0.0133,0.0133,0.0133,0,0,-0.0377,-0.036,-0.0374,-0.0359,-0.0335,-0.0305,-0.0306,-0.0265,-0.0243,-0.0215,-0.0165,-0.0123,-0.0061,-0.0014,0.0017,0.0012,0.0068,0.0022,-0.0006,0.0054,0.0055,0.0056,0.0101,0.0107,0.0023,0.0023,0.0023,0,-0.0398,-0.0407,-0.0374,-0.0384,-0.0379,-0.0323,-0.0336,-0.0303,-0.0254,-0.0234,-0.0218,-0.0122,-0.0073,-0.0022,-0.0025,0.0001,0.0039,0.0008,0.0047,0.0049,0.0052,0.0098,0.0105,0.002,0.002,0.002,0.0021,0,-0.044,-0.0448,-0.0456,-0.0448,-0.0437,-0.0438,-0.0393,-0.0371,-0.0336,-0.0298,-0.0247,-0.0178,-0.0118,-0.0098,-0.0062,-0.0018,0.0003,0.0028,0.0058,0.0048,0.0097,0.0106,0.0014,0.0016,0.0017,0.0018,0,0,-0.0485,-0.0487,-0.049,-0.0501,-0.0473,-0.0469,-0.045,-0.0413,-0.0396,-0.0338,-0.031,-0.0235,-0.0192,-0.0153,-0.0098,-0.0045,0.0003,-0.0006,-0.0001,0.0031,0.0126,0.0165,0.0179,0.0035,0.0037,0.0038,0.0147,0,-0.0528,-0.0569,-0.0551,-0.0578,-0.0595,-0.0544,-0.0536,-0.0494,-0.0438,-0.0392,-0.0306,-0.0259,-0.0213,-0.0186,-0.0125,-0.0025,0.0026,-0.003,0.0138,0.0142,0.0173,0.0192,0.0158,0.0255,0.0156,0.0158,0.0159,0,-0.0578,-0.0598,-0.0643,-0.0652,-0.0654,-0.0656,-0.0623,-0.0603,-0.0518,-0.0477,-0.0402,-0.0329,-0.0239,-0.0202,-0.0038,-0.0076,0.0014,0.0091,0.0098,0.017,0.02,0.0253,0.0277,0.0176,0.0174,0.0173,0.0172,0,-0.0637,-0.0661,-0.0701,-0.0706,-0.0703,-0.0707,-0.0693,-0.0632,-0.0613,-0.0519,-0.049,-0.0371,-0.0304,-0.0178,-0.0017,-0.0026,0.0167,0.0177,0.0296,0.03,0.0324,0.0327,0.029,0.0289,0.0289,0.0289,0.0289,0,-0.0696,-0.0725,-0.0733,-0.0757,-0.0798,-0.077,-0.0782,-0.0744,-0.0684,-0.0657,-0.0539,-0.0479,-0.0292,-0.0156,-0.0024,0.0172,0.0166,0.03,0.0338,0.0295,0.0295,0.0269,0.0265,0.0293,0.0292,0.0291,0.0291,0,-0.0756,-0.0762,-0.0811,-0.0825,-0.0832,-0.086,-0.0854,-0.0851,-0.0785,-0.074,-0.0715,-0.0547,-0.036,-0.0174,0.0053,0.0169,0.0344,0.0412,0.0343,0.0372,0.0433,0.0424,0.0552,0.0554,0.0556,0.0558,0.0559,0,-0.0791,-0.0823,-0.087,-0.0907,-0.0917,-0.0944,-0.0963,-0.0913,-0.0898,-0.0774,-0.0755,-0.0563,-0.041,-0.0066,0.0174,0.0419,0.0412,0.0523,0.0506,0.044,0.0464,0.0451,0.044,0.0501,0.0502,0.0503,0.0503,0,-0.0853,-0.0869,-0.091,-0.0988,-0.1026,-0.106,-0.107,-0.1073,-0.0995,-0.0926,-0.0787,-0.0649,-0.031,-0.0016,0.0301,0.0432,0.048,0.0547,0.0516,0.0438,0.0401,0.0421,0.041,0.0509,0.0509,0.0508,0.0508,0.0508,-0.0892,-0.0944,-0.1001,-0.1067,-0.1115,-0.1153,-0.1163,-0.1135,-0.1088,-0.0947,-0.0817,-0.0569,-0.0294,0.0179,0.0392,0.0583,0.0578,0.062,0.0614,0.0609,0.0582,0.0551,0.0681,0.0681,0.0682,0.0682,0.0682,0,-0.094,-0.0997,-0.1073,-0.1148,-0.1195,-0.1203,-0.1215,-0.1178,-0.1095,-0.093,-0.0754,-0.0426,-0.0102,0.0171,0.049,0.0676,0.0641,0.069,0.0611,0.0604,0.0598,0.0567,0.0664,0.0665,0.0665,0.0666,0,0,-0.097,-0.1053,-0.1093,-0.1185,-0.1232,-0.1258,-0.1253,-0.1165,-0.1035,-0.0835,-0.0639,-0.0396,-0.0067,0.0157,0.0382,0.0539,0.0518,0.0542,0.0537,0.0409,0.0401,0.0539,0.0483,0,0,0,0,0]}],[{"header":{"parameterUnit":"m.s-1","parameterCategory":2,"la1":30.2991,"la2":30.254,"lo1":-89.0895,"lo2":-89.0444,"dy":0.0017,"dx":0.0017,"nx":28,"ny":28,"refTime":"2023-08-30T03:00:00:Z","depth":"4","parameterNumber":2,"parameterNumberName":"U-component_of_CURRENTS"},"data":[0,0,0,0,0,0,0,0,0,0,0,0,0,0,0,0,0,0,0,0,0,0,0,0,0,0,0,0,0,0,0,0,0,0,0,0,0,0,0,0,0,0,0,0,0,0,0,0,0,0,0,0,0,0,0,0,0,0,-0.1755,-0.1756,0,-0.1821,-0.1822,-0.1823,-0.1857,-0.1857,-0.1857,-0.1857,-0.1911,-0.1912,-0.1913,0,0,0,0,0,0,0,0,0,0,0,0,0,-0.1662,-0.1663,-0.1755,-0.1756,-0.1757,-0.1821,-0.1822,-0.1823,-0.1857,-0.1857,-0.1857,-0.1857,-0.191,-0.1912,-0.1913,0,0,0,0,0,0,0,0,0,0,0,0,0,-0.1711,-0.1663,-0.1755,-0.1783,-0.1786,-0.1821,-0.1822,-0.1823,-0.1856,-0.1857,-0.1857,-0.1857,-0.191,-0.1912,-0.1914,-0.192,0,0,-0.1919,-0.192,0,0,0,0,0,0,0,0,-0.1708,-0.1714,-0.1778,-0.1781,-0.1785,-0.1832,-0.1809,-0.1855,-0.1856,-0.1828,-0.1857,-0.1857,-0.1884,-0.1888,-0.1898,-0.1922,-0.1925,-0.1919,-0.1921,-0.1921,-0.1922,0,0,0,0,0,0,0,-0.1704,-0.1711,-0.1779,-0.1779,-0.1783,-0.1794,-0.1801,-0.1818,-0.1852,-0.183,-0.1833,-0.1843,-0.1886,-0.1896,-0.1899,-0.1925,-0.1919,-0.1921,-0.1922,-0.1923,-0.2033,-0.2034,0,0,0,0,0,0,-0.1699,-0.1708,-0.1777,-0.1782,-0.1748,-0.1795,-0.1803,-0.1815,-0.1852,-0.1859,-0.1843,-0.1845,-0.1893,-0.1897,-0.1901,-0.1981,-0.1921,-0.1923,-0.1924,-0.2031,-0.2033,-0.2035,0,0,0,0,0,0,-0.1697,-0.1705,-0.1775,-0.1747,-0.1757,-0.1797,-0.181,-0.1817,-0.1855,-0.1863,-0.1868,-0.1878,-0.1893,-0.1899,-0.1945,-0.1981,-0.1924,-0.1926,-0.2029,-0.2032,-0.2034,-0.2096,0,0,0,0,0,0,-0.1694,-0.1704,-0.1726,-0.1747,-0.1759,-0.1815,-0.181,-0.1818,-0.186,-0.1863,-0.1894,-0.1898,-0.1894,-0.1942,-0.1947,-0.1982,-0.1927,-0.2027,-0.203,-0.2033,-0.2092,-0.21,-0.2108,0,0,0,0,0,-0.1691,-0.1715,-0.1727,-0.1736,-0.1783,-0.1817,-0.1824,-0.1851,-0.1862,-0.1885,-0.1909,-0.1898,-0.1966,-0.1945,-0.195,-0.1987,-0.2025,-0.2029,-0.2033,-0.2088,-0.2099,-0.2108,0,0,0,0,0,0,-0.1687,-0.1721,-0.1735,-0.1769,-0.1801,-0.1823,-0.1852,-0.1869,-0.1907,-0.1918,-0.1921,-0.1927,-0.1981,-0.1977,-0.1954,-0.2029,-0.1994,-0.1999,-0.2035,-0.2045,-0.2053,-0.2042,-0.1929,0,0,0,0,0,-0.1696,-0.1724,-0.1755,-0.1786,-0.1804,-0.1834,-0.1857,-0.1877,-0.1906,-0.1924,-0.1947,-0.1971,-0.1997,-0.2016,-0.2036,-0.2078,-0.2053,-0.2105,-0.2114,-0.212,-0.2116,-0.2117,-0.2125,-0.2048,-0.2048,-0.2048,0,0,-0.1704,-0.1726,-0.1744,-0.1788,-0.1813,-0.185,-0.1849,-0.1894,-0.1931,-0.1923,-0.1988,-0.2004,-0.2016,-0.2063,-0.2087,-0.2067,-0.213,-0.2125,-0.2131,-0.2123,-0.2122,-0.2129,-0.2136,-0.2051,-0.205,-0.205,0,0,-0.1721,-0.1753,-0.1781,-0.1812,-0.1859,-0.188,-0.19,-0.1944,-0.1974,-0.203,-0.2036,-0.2072,-0.2119,-0.2129,-0.214,-0.2205,-0.2174,-0.2221,-0.2254,-0.2256,-0.2262,-0.2266,-0.224,-0.2242,-0.2224,-0.2224,-0.2224,0,-0.1732,-0.1767,-0.1795,-0.183,-0.1861,-0.1898,-0.1936,-0.1973,-0.2029,-0.2053,-0.2062,-0.2131,-0.2146,-0.2189,-0.2215,-0.2223,-0.2209,-0.2215,-0.2265,-0.2269,-0.2273,-0.2244,-0.2246,-0.2228,-0.2227,-0.2227,-0.2227,0,-0.176,-0.1803,-0.1823,-0.1879,-0.1917,-0.1957,-0.2006,-0.2055,-0.2096,-0.2123,-0.2187,-0.2208,-0.2241,-0.2262,-0.2262,-0.2304,-0.228,-0.2274,-0.2235,-0.2284,-0.2251,-0.2251,-0.2233,-0.2232,-0.2231,-0.223,0,0,-0.1741,-0.1826,-0.1838,-0.1871,-0.1947,-0.1975,-0.2048,-0.2108,-0.2149,-0.2208,-0.2251,-0.2307,-0.2314,-0.2325,-0.2333,-0.2342,-0.2361,-0.2327,-0.2326,-0.2291,-0.2349,-0.2191,-0.2175,-0.2368,-0.2368,-0.2369,-0.2312,0,-0.1756,-0.1822,-0.1867,-0.1937,-0.1972,-0.2034,-0.2092,-0.2154,-0.2206,-0.2258,-0.2289,-0.2333,-0.2339,-0.2359,-0.2374,-0.2367,-0.2366,-0.2376,-0.2314,-0.2312,-0.2158,-0.2172,-0.2371,-0.2312,-0.2312,-0.2312,-0.2312,0,-0.1758,-0.1806,-0.1876,-0.196,-0.1982,-0.2036,-0.2124,-0.2181,-0.2259,-0.2295,-0.2343,-0.2365,-0.24,-0.2394,-0.2396,-0.2405,-0.2382,-0.2369,-0.2367,-0.2194,-0.2154,-0.2256,-0.2311,-0.2311,-0.2311,-0.2312,-0.2312,0,-0.1707,-0.1805,-0.1861,-0.1893,-0.1998,-0.2047,-0.2107,-0.2194,-0.2238,-0.2316,-0.2344,-0.2389,-0.241,-0.2404,-0.2386,-0.2397,-0.2365,-0.2371,-0.2202,-0.219,-0.2322,-0.2318,-0.236,-0.236,-0.236,-0.236,-0.2361,0,-0.1683,-0.173,-0.1848,-0.1878,-0.1942,-0.2028,-0.2097,-0.2161,-0.2246,-0.2277,-0.2355,-0.2365,-0.2418,-0.2409,-0.2386,-0.2277,-0.236,-0.2194,-0.2163,-0.235,-0.2349,-0.2321,-0.2317,-0.2358,-0.2359,-0.2359,-0.236,0,-0.1609,-0.1693,-0.1756,-0.1879,-0.1919,-0.1963,-0.2081,-0.212,-0.2216,-0.2258,-0.2281,-0.2354,-0.2328,-0.2344,-0.2323,-0.225,-0.2179,-0.2121,-0.23,-0.2283,-0.2003,-0.2004,-0.1918,-0.1912,-0.1907,-0.1903,-0.1899,0,-0.1572,-0.1601,-0.1733,-0.1772,-0.1833,-0.1917,-0.1966,-0.2084,-0.2118,-0.2219,-0.2214,-0.2244,-0.2265,-0.2087,-0.2137,-0.2054,-0.2037,-0.1988,-0.2012,-0.1977,-0.1958,-0.1966,-0.1974,-0.1891,-0.189,-0.1888,-0.1887,0,-0.1491,-0.1552,-0.1607,-0.1682,-0.1748,-0.1801,-0.1882,-0.1887,-0.2003,-0.212,-0.2065,-0.2034,-0.1999,-0.1965,-0.1913,-0.1866,-0.2014,-0.1934,-0.1945,-0.1967,-0.1943,-0.1931,-0.1944,-0.1869,-0.1872,-0.1873,-0.1874,0,-0.1424,-0.1438,-0.1514,-0.1561,-0.1638,-0.1643,-0.1707,-0.1729,-0.1768,-0.1889,-0.1865,-0.1891,-0.1968,-0.1865,-0.1819,-0.1754,-0.1733,-0.1679,-0.1704,-0.1724,-0.1688,-0.1632,-0.1419,0,0,0,0,0,-0.1344,-0.1344,-0.1383,-0.1421,-0.1489,-0.1523,-0.1627,-0.1694,-0.1811,-0.1717,-0.1782,-0.1734,-0.1661,-0.1685,-0.1573,-0.174,-0.1748,-0.1606,-0.1702,-0.177,-0.1791,-0.1768,0,0,0,0,0,0,-0.129,-0.1324,-0.1332,-0.1282,-0.1281,-0.1326,-0.1379,-0.1467,-0.1424,-0.1553,-0.1515,-0.1619,-0.1571,-0.1681,-0.1531,-0.1539,-0.156,-0.1643,-0.1638,-0.1758,-0.1777,-0.1794,-0.1777,0,0,0,0,0]},{"header":{"parameterUnit":"m.s-1","parameterCategory":2,"la1":30.2991,"la2":30.254,"lo1":-89.0895,"lo2":-89.0444,"dy":0.0017,"dx":0.0017,"nx":28,"ny":28,"refTime":"2023-08-30T03:00:00:Z","depth":"4","parameterNumber":3,"parameterNumberName":"V-component_of_CURRENTS"},"data":[0,0,0,0,0,0,0,0,0,0,0,0,0,0,0,0,0,0,0,0,0,0,0,0,0,0,0,0,0,0,0,0,0,0,0,0,0,0,0,0,0,0,0,0,0,0,0,0,0,0,0,0,0,0,0,0,0,0,-0.0144,-0.0144,0,-0.0094,-0.0094,-0.0093,-0.0053,-0.0053,-0.0053,-0.0052,0.0046,0.0048,0.005,0,0,0,0,0,0,0,0,0,0,0,0,0,-0.0166,-0.0166,-0.0144,-0.0144,-0.0143,-0.0094,-0.0094,-0.0093,-0.0053,-0.0053,-0.0052,-0.0052,0.0045,0.0048,0.0051,0,0,0,0,0,0,0,0,0,0,0,0,0,-0.0139,-0.0166,-0.0144,-0.0119,-0.0116,-0.0095,-0.0094,-0.0092,-0.0053,-0.0053,-0.0052,-0.0052,0.0044,0.0047,0.0051,0.0065,0,0,0.0062,0.0063,0,0,0,0,0,0,0,0,-0.0141,-0.0138,-0.0123,-0.012,-0.0117,-0.0081,-0.0066,-0.0038,-0.0053,-0.0075,-0.0052,-0.0052,0.0006,0.0013,0.0023,0.007,0.0074,0.0062,0.0064,0.0066,0.0067,0,0,0,0,0,0,0,-0.0143,-0.014,-0.0123,-0.0123,-0.0119,-0.0097,-0.0093,-0.006,-0.0035,-0.0073,-0.0071,-0.0068,0.0009,0.002,0.0026,0.0076,0.0062,0.0065,0.0067,0.0069,0.0144,0.0144,0,0,0,0,0,0,-0.0155,-0.0142,-0.0124,-0.0121,-0.013,-0.0097,-0.0092,-0.0092,-0.0036,-0.0028,-0.0068,-0.0066,0.0013,0.0022,0.003,0.0045,0.0066,0.0069,0.0071,0.0144,0.0144,0.0144,0,0,0,0,0,0,-0.0156,-0.0154,-0.0126,-0.0132,-0.0127,-0.0097,-0.0097,-0.0091,-0.0082,-0.0033,-0.0024,-0.0066,0.0014,0.0025,0.0055,0.0049,0.0071,0.0074,0.0144,0.0144,0.0144,0.0079,0,0,0,0,0,0,-0.0156,-0.0154,-0.016,-0.0133,-0.0127,-0.012,-0.0097,-0.009,-0.0081,-0.0078,-0.0028,-0.0018,0.0015,0.0049,0.0058,0.0055,0.0077,0.0145,0.0144,0.0144,0.0082,0.0077,0.0073,0,0,0,0,0,-0.0157,-0.0168,-0.0161,-0.0159,-0.0135,-0.0121,-0.0116,-0.0092,-0.0082,-0.0082,-0.0047,-0.002,0.0054,0.0052,0.0062,0.006,0.0145,0.0144,0.0144,0.0084,0.0078,0.0073,0,0,0,0,0,0,-0.0181,-0.0165,-0.0156,-0.0161,-0.0146,-0.0115,-0.0116,-0.0098,-0.0072,-0.0068,-0.0021,-0.0009,0.0014,0.0047,0.0043,0.0081,0.0104,0.0106,0.0054,0.0049,0.0045,0.0037,0.008,0,0,0,0,0,-0.019,-0.0195,-0.0172,-0.0178,-0.0173,-0.0146,-0.0138,-0.0122,-0.0095,-0.0083,-0.0049,-0.0011,0.0022,0.0042,0.0074,0.0096,0.0133,0.0102,0.0098,0.0094,0.0095,0.0147,0.0147,0.0143,0.0143,0.0143,0,0,-0.0201,-0.0193,-0.0196,-0.0184,-0.017,-0.0169,-0.014,-0.0133,-0.013,-0.0076,-0.0062,-0.0027,0.0023,0.0046,0.006,0.0073,0.0112,0.0093,0.009,0.0093,0.0146,0.0147,0.0147,0.0143,0.0143,0.0143,0,0,-0.0227,-0.0219,-0.0232,-0.0225,-0.0211,-0.0191,-0.0193,-0.0167,-0.0152,-0.0134,-0.0095,-0.0063,-0.0016,0.002,0.0044,0.0037,0.0084,0.0046,0.0021,0.0071,0.0072,0.0073,0.0108,0.0113,0.0047,0.0047,0.0046,0,-0.0243,-0.0254,-0.0233,-0.0244,-0.0244,-0.0206,-0.0219,-0.0197,-0.0164,-0.0151,-0.0138,-0.0066,-0.0027,0.0011,0.0007,0.0027,0.0059,0.0034,0.0065,0.0067,0.0069,0.0105,0.0111,0.0043,0.0044,0.0044,0.0044,0,-0.0276,-0.0287,-0.0294,-0.0295,-0.0291,-0.0295,-0.0267,-0.0254,-0.0231,-0.0205,-0.0169,-0.0115,-0.007,-0.0054,-0.0025,0.0009,0.0026,0.0049,0.0075,0.0066,0.0104,0.0112,0.0039,0.004,0.0041,0.0042,0,0,-0.0305,-0.0316,-0.032,-0.0333,-0.032,-0.0321,-0.0313,-0.0291,-0.0283,-0.0242,-0.0224,-0.0167,-0.0133,-0.0102,-0.0059,-0.0014,0.0024,0.0019,0.0023,0.0048,0.0125,0.0118,0.0126,0.0053,0.0054,0.0055,0.0141,0,-0.0337,-0.0374,-0.0367,-0.0396,-0.0412,-0.0382,-0.0382,-0.0357,-0.032,-0.029,-0.0223,-0.019,-0.0152,-0.0131,-0.0081,0.0001,0.0043,-0.0002,0.0136,0.014,0.0131,0.0135,0.0059,0.0147,0.0148,0.015,0.0151,0,-0.0373,-0.0393,-0.0435,-0.0453,-0.0458,-0.0468,-0.0455,-0.0446,-0.0389,-0.0361,-0.0305,-0.025,-0.0179,-0.0146,-0.0013,-0.0043,0.0032,0.0096,0.0101,0.0125,0.0148,0.0164,0.0165,0.0164,0.0163,0.0162,0.0161,0,-0.0409,-0.0439,-0.0476,-0.0484,-0.0497,-0.0508,-0.0507,-0.0471,-0.0463,-0.0398,-0.0379,-0.0285,-0.0234,-0.0129,0.0001,-0.0003,0.0151,0.0164,0.0229,0.0229,0.0238,0.0236,0.0258,0.0258,0.0257,0.0257,0.0257,0,-0.0444,-0.0475,-0.05,-0.0522,-0.0566,-0.0555,-0.0578,-0.0557,-0.0521,-0.0505,-0.042,-0.0376,-0.0225,-0.0118,-0.0007,0.0133,0.0148,0.0226,0.0254,0.0207,0.02,0.0243,0.024,0.026,0.026,0.0259,0.0259,0,-0.0476,-0.0494,-0.0542,-0.0573,-0.0588,-0.0619,-0.0637,-0.0642,-0.0603,-0.0574,-0.0557,-0.0434,-0.0291,-0.0143,0.0042,0.0121,0.0256,0.0302,0.0233,0.0255,0.0299,0.0292,0.0376,0.0376,0.0377,0.0377,0.0377,0,-0.0494,-0.0523,-0.0587,-0.0626,-0.0645,-0.0684,-0.0711,-0.0689,-0.0682,-0.0602,-0.0586,-0.0449,-0.0352,-0.0096,0.0054,0.0258,0.0287,0.0344,0.0327,0.0295,0.0314,0.0306,0.0298,0.0378,0.0378,0.0378,0.0378,0,-0.0526,-0.0554,-0.0595,-0.0675,-0.0723,-0.0764,-0.0789,-0.0789,-0.0744,-0.0714,-0.0589,-0.0446,-0.0283,-0.0088,0.007,0.0217,0.0299,0.035,0.0349,0.0334,0.0299,0.0315,0.0307,0.038,0.038,0.038,0.0379,0,-0.0548,-0.059,-0.065,-0.0714,-0.0779,-0.0815,-0.0827,-0.0798,-0.0778,-0.0678,-0.0632,-0.0445,-0.0328,-0.0108,0.004,0.0179,0.021,0.0244,0.025,0.025,0.0185,0.012,0.0173,0,0,0,0,0,-0.0563,-0.0613,-0.0682,-0.0751,-0.0811,-0.0838,-0.0864,-0.0858,-0.0813,-0.073,-0.0675,-0.0515,-0.0266,-0.0153,-0.0014,0.0027,0.0213,0.0191,0.0248,0.0389,0.0387,0.0332,0,0,0,0,0,0,-0.0578,-0.0647,-0.0682,-0.0756,-0.0801,-0.0855,-0.0869,-0.0844,-0.0784,-0.0719,-0.0583,-0.0492,-0.0253,-0.0341,-0.0011,0.0032,0.0083,0.0313,0.0316,0.039,0.0388,0.0387,0.0329,0,0,0,0,0]}]]